www.pogodaiklimat.ru

Архив погоды в Торуни (Польша)

Время
(UTC), дата
16 21.05
17 21.05
18 21.05
19 21.05
20 21.05
21 21.05
22 21.05
23 21.05
00 22.05
01 22.05
02 22.05
03 22.05
04 22.05
05 22.05
06 22.05
07 22.05
08 22.05
09 22.05
10 22.05
11 22.05
12 22.05
13 22.05
14 22.05
15 22.05
16 22.05
17 22.05
18 22.05
19 22.05
20 22.05
21 22.05
22 22.05
23 22.05
00 23.05
01 23.05
02 23.05
03 23.05
04 23.05
05 23.05
06 23.05
07 23.05
08 23.05
09 23.05
10 23.05
11 23.05
12 23.05
13 23.05
14 23.05
15 23.05
16 23.05
17 23.05
18 23.05
19 23.05
20 23.05
21 23.05
22 23.05
23 23.05
00 24.05
01 24.05
02 24.05
03 24.05
04 24.05
05 24.05
06 24.05
07 24.05
08 24.05
09 24.05
10 24.05
11 24.05
12 24.05
13 24.05
14 24.05
15 24.05
16 24.05
17 24.05
18 24.05
19 24.05
20 24.05
21 24.05
22 24.05
23 24.05
00 25.05
01 25.05
02 25.05
03 25.05
04 25.05
05 25.05
06 25.05
07 25.05
08 25.05
09 25.05
10 25.05
11 25.05
12 25.05
13 25.05
14 25.05
15 25.05
16 25.05
17 25.05
18 25.05
19 25.05
20 25.05
21 25.05
22 25.05
23 25.05
00 26.05
01 26.05
02 26.05
03 26.05
04 26.05
05 26.05
06 26.05
07 26.05
08 26.05
09 26.05
10 26.05
11 26.05
12 26.05
13 26.05
14 26.05
15 26.05
16 26.05
17 26.05
18 26.05
19 26.05
20 26.05
21 26.05
22 26.05
23 26.05
00 27.05
01 27.05
02 27.05
03 27.05
04 27.05
05 27.05
06 27.05
07 27.05
08 27.05
09 27.05
10 27.05
11 27.05
12 27.05
13 27.05
14 27.05
15 27.05
16 27.05
17 27.05
18 27.05
19 27.05
20 27.05
21 27.05
22 27.05
23 27.05
00 28.05
01 28.05
02 28.05
03 28.05
04 28.05
05 28.05
06 28.05
07 28.05
08 28.05
09 28.05
10 28.05
11 28.05
12 28.05
13 28.05
14 28.05
15 28.05
Ветер
(напр.,м/с)
Видим. Явления Облачность Т
(С)
Тd
(С)
f
(%)
Тe
(С)
Тes
(С)
Комфортность P
(гПа)
Po
(гПа)
Тmin
(С)
Tmax
(С)
R
(мм)
R24
(мм)
S
(см)
СВ 3 45 км 5/4 1500 м
[Cu med, cong Ci fib]
+26.7 +10.8 37 +28 +29 жарко 1011.5 1003.2
СВ 3-8 {8} 50 км 5/4 1500 м
[Cu med, cong Ci fib]
+25.1 +12.7 46 +27 +28 жарко 1011.2 1002.9
СВ 3-8 {12} 50 км 4/3 1500 м
[Sc diur, vesp Ci fib]
+23.6 +13.5 53 +26 +26 жарко 1011.5 1003.1 +17.8 +27.7
СВ 2 45 км 3/1 1500 м
[Sc diur, vesp Ci fib]
+22.2 +12.7 55 +25 +25 комфорт 1011.6 1003.2
СВ 2 45 км 1/0
[Ci fib]
+20.6 +12.6 60 +23 +23 комфорт 1011.9 1003.4
СВ 2 45 км н/о +20.0 +12.5 62 +22 +22 комфорт 1012.0 1003.5
СВ 3 50 км н/о +19.4 +11.9 62 +21 +21 комфорт 1012.0 1003.5
В 3 40 км н/о +19.2 +11.5 61 +20 +20 1012.0 1003.5
В 3 45 км н/о +18.4 +11.7 65 +19 +19 1011.8 1003.3
В 3 45 км н/о +17.5 +11.7 69 +18 +18 1011.6 1003.0
В 3 45 км н/о +17.0 +11.7 71 +17 +17 1011.6 1003.0
В 3 30 км н/о +16.4 +11.3 72 +16 +16 1011.4 1002.8
В 4 40 км н/о +17.0 +11.7 71 +17 +17 1011.3 1002.7
В 4 30 км 1/0
[Ci fib]
+18.2 +12.2 68 +18 +20 1011.4 1002.9
В 4 35 км 3/0
[Ci fib]
+20.1 +13.1 64 +22 +25 комфорт 1011.1 1002.6 +16.4 +23.6
В 4 30 км 4/0
[Ac trans Ci fib]
+22.4 +14.3 60 +26 +31 жарко 1010.9 1002.5
В 6 35 км 4/0
[Ac trans Ci fib]
+23.7 +14.1 55 +26 +30 жарко 1010.6 1002.2
В 5 30 км 4/1 1000 м
[Cu hum Ac trans Ci fib]
+25.8 +13.6 47 +28 +33 жарко 1010.2 1001.9
В 6 {11} 30 км 8/3 1500 м
[Cu med, cong Ac trans Cs]
+27.0 +13.7 44 +29 +32 жарко 1009.9 1001.6
СВ 6 {11} 35 км 6/3 1500 м
[Cu med, cong Ac trans Cs]
+26.3 +12.7 43 +28 +31 жарко 1009.7 1001.4
В 5 {11} 30 км 8/5 1500 м
[Cu med, cong Ac trans Ci sp]
+26.5 +12.9 43 +28 +31 жарко 1009.2 1000.9
В 5-10 {10} 40 км 8/5 1500 м
[Cu med, cong Ac trans]
+27.4 +11.8 38 +29 +31 жарко 1008.5 1000.2
В 5 {10} 40 км 8/6 1500 м
[Cb calv Ac trans]
+27.0 +11.9 39 +28 +30 жарко 1008.1 999.8
В 5 {10} 40 км гроза без осадков 9/9 1500 м
[Cb cap]
+26.7 +12.0 40 +28 +28 жарко 1008.1 999.8
В 6-12 {12} 45 км гроза без осадков 10/10 1500 м
[Cb cap]
+25.5 +11.6 42 +27 +27 жарко 1008.1 999.8
Ю 3 {11} 30 км гроза, ливневой дождь 10/10 2000 м
[Cb cap]
+18.0 +15.3 84 +18 +18 1009.5 1001.0
СВ 1 {12} 23 км слаб. ливневой дождь {гроза} 10/10 2000 м
[Cb cap]
+18.0 +16.0 88 +19 +19 1010.2 1001.7 +17.8 +27.9 2
С 2 14 км гроза, ливневой дождь 10/10 2000 м
[Cb cap]
+17.5 +15.8 90 +18 +18 1010.6 1002.0
Ю 2 12 км в посл. час гроза {ливн. дождь} 9/5 2000 м
[Cb cap Ac As]
+17.1 +16.0 93 +17 +17 1010.4 1001.8
С 1 9000 м дымка н/о +17.0 +16.0 94 +18 +18 1010.8 1002.2
СВ 1 6000 м дымка н/о +16.8 +16.0 95 +18 +18 1010.6 1002.0
СВ 1 4100 м дымка н/о +16.4 +15.6 95 +17 +17 1010.3 1001.7
В 1 5000 м дымка н/о +16.7 +15.9 95 +18 +18 1010.6 1002.0 0.9
В 1 2200 м дымка н/о +16.8 +16.0 95 +18 +18 1010.9 1002.3
В 2 9000 м слаб. ливневой дождь н/о +16.9 +15.8 93 +17 +17 1010.9 1002.3
В 2 10 км слаб. ливневой дождь н/о +16.9 +15.6 92 +17 +17 1011.2 1002.6
В 2 6000 м слаб. дождь н/о +17.0 +15.9 93 +17 +17 1011.7 1003.1
В 4 10 км слаб. ливневой дождь 10/10 1000 м
[Cb cap]
+16.6 +15.0 90 +16 +16 1012.0 1003.4
В 2 15 км в посл. час ливневой дождь 10/8 600 м
[Sc Ac As]
+16.8 +15.5 92 +17 +17 1012.1 1003.5 +16.3 +18.0 2 4.1
В 3 11 км слаб. ливневой дождь 10/10 600 м
[Cb cap]
+16.8 +15.3 91 +17 +17 1012.3 1003.7
В 4 5000 м слаб. ливневой дождь 10/10 300 м
[Cb cap]
+16.5 +15.5 94 +16 +16 1012.4 1003.8
В 3 9000 м слаб. ливневой дождь 10/10 200 м
[Cb cap]
+17.7 +16.6 93 +18 +18 1012.7 1004.1
ЮВ 3 10 км в посл. час ливневой дождь 10/10 600 м
[Cb cap]
+18.4 +16.7 90 +19 +19 1013.0 1004.5
ЮВ 5 14 км 10/10 330 м
[Sc]
+18.3 +15.9 86 +18 +18 1013.7 1005.1
Ю 3 11 км слаб. ливневой дождь 10/10 200 м
[Cb cap]
+17.8 +15.6 87 +18 +18 1014.4 1005.8 3
Ю 2 8000 м слаб. ливневой дождь 10/10 200 м
[Cb cap]
+17.5 +16.7 95 +18 +18 1015.1 1006.5
Ю 2 23 км в посл. час ливневой дождь 9/9 1000 м
[Cb cap]
+17.5 +16.0 91 +18 +19 1015.2 1006.6
ЮВ 2 40 км {ливн. дождь} 8/6 1000 м
[Cu med, cong Ac trans]
+18.7 +15.9 84 +20 +22 1015.7 1007.1
ЮЗ 2 35 км 8/6 1500 м
[Cu med, cong Ac trans]
+19.4 +16.4 83 +22 +23 комфорт 1015.7 1007.2
Ю 2 35 км 8/5 1500 м
[Cu med, cong Ci fib]
+19.1 +14.6 75 +21 +22 комфорт 1016.3 1007.7
ЮЗ 1 28 км {ливн. дождь} 8/3 1500 м
[Sc Ci fib]
+18.6 +15.3 81 +21 +21 комфорт 1016.4 1007.8 +16.5 +19.5 4
ЮЗ 1 7000 м дымка 8/0
[Ac und Ci fib]
+16.8 +15.3 91 +18 +18 1016.8 1008.2
З 1 4500 м дымка 8/0
[Ac trans Ci fib]
+16.4 +15.4 94 +17 +17 1017.3 1008.7
С 1 4800 м дымка н/о +16.2 +15.2 94 +17 +17 1017.9 1009.2
С 1 16 км н/о +16.3 +14.8 91 +17 +17 1018.0 1009.3
СЗ 1 10 км н/о +16.0 +14.7 92 +17 +17 1018.5 1009.8
СЗ 1 7000 м слаб. ливневой дождь н/о +15.9 +14.8 93 +17 +17 1018.8 1010.1 0.0
СЗ 1 8000 м дымка н/о +15.8 +14.8 94 +16 +16 1018.9 1010.2
СЗ 1 8000 м дымка н/о +15.6 +14.6 94 +16 +16 1018.9 1010.2
СЗ 1 7000 м дымка н/о +15.6 +14.6 94 +16 +16 1019.0 1010.3
З 1 6000 м слаб. ливневой дождь н/о +15.8 +15.0 95 +16 +16 1019.1 1010.4
СЗ 2 6000 м слаб. ливневой дождь 10/10 600 м
[Cb cap]
+16.1 +15.3 95 +16 +16 1019.3 1010.6
С 2 12 км в посл. час ливневой дождь 9/9 600 м
[Sc]
+17.3 +16.0 92 +18 +18 1019.6 1011.0 +15.6 +18.6 0.0 3.8
С 3 10 км 10/10 300 м
[Sc]
+17.6 +15.9 90 +18 +18 1020.0 1011.4
С 3 11 км 10/10 240 м
[St]
+17.8 +15.8 88 +18 +18 1020.2 1011.6
С 3 13 км 10/10 330 м
[Sc]
+18.8 +16.0 84 +20 +20 1020.4 1011.8
С 3 16 км 9/9 600 м
[Sc]
+20.0 +16.4 80 +23 +24 комфорт 1020.4 1011.8
С 3 19 км 9/9 600 м
[Sc]
+20.7 +16.5 77 +24 +26 комфорт 1020.2 1011.7
С 3 14 км в посл. час ливневой дождь 8/8 600 м
[Cb calv]
+21.1 +16.9 77 +25 +27 комфорт 1019.7 1011.2 0.1
С 3 20 км гроза без осадков 8/8 600 м
[Cb cap]
+21.7 +17.1 75 +26 +28 душно 1019.3 1010.8
С 4 23 км в посл. час гроза 6/4 600 м
[Cb calv Ac trans]
+23.2 +17.2 69 +28 +32 душно 1018.5 1010.0
С 2 3500 м гроза, ливневой дождь 9/9 600 м
[Cb cap]
+20.6 +18.7 89 +25 +26 комфорт 1018.9 1010.4
СЗ 3 {11} 10 км гроза, ливневой дождь 9/8 600 м
[Cb cap Ac trans]
+19.7 +18.4 92 +23 +23 комфорт 1018.2 1009.6
С 2 18 км в посл. час гроза {ливн. дождь} 8/6 600 м
[Cb cap Ac trans]
+19.4 +17.4 88 +22 +22 комфорт 1018.3 1009.7
ЮЗ 2 {11} 20 км гроза без осадков {ливн. дождь} 9/9 600 м
[Cb cap]
+17.6 +13.5 77 +18 +18 1020.6 1012.0 +17.3 +23.2 25
СЗ 1 20 км в посл. час гроза {ливн. дождь} 9/6 600 м
[Cb cap Ac trans]
+15.7 +14.6 93 +16 +16 1019.8 1011.1
С 2 22 км 8/5 600 м
[Sc Ac trans]
+15.1 +14.1 94 +15 +15 1019.0 1010.3
С 3 17 км н/о +15.4 +13.9 91 +15 +15 1018.9 1010.2
ЮВ 1 2600 м дымка н/о +14.0 +13.0 94 +14 +14 1019.3 1010.6
В 1 900 м туман н/о +13.2 +12.4 95 +13 +13 1019.5 1010.7
В 1 3600 м в посл. час туман н/о +13.5 +12.9 96 +14 +14 1019.7 1010.9 1
В 1 1900 м дымка н/о +13.6 +13.1 97 +14 +14 1019.5 1010.8
СВ 1 100 м туман н/о +13.2 +12.7 97 +13 +13 1019.3 1010.5
С 1 500 м туман н/о +12.5 +12.0 97 +12 +12 1019.2 1010.4
В 2 5000 м в посл. час туман н/о +13.6 +13.1 97 +13 +13 1019.5 1010.8
В 2 19 км 1/0
[Ci fib]
+15.8 +13.6 87 +16 +18 1019.7 1011.0
В 3 28 км 1/0
[Ci fib]
+17.5 +14.6 83 +18 +22 1019.7 1011.1 +12.2 +17.6 1 26.3
В 2 30 км 3/0
[Ac trans Ci fib]
+19.6 +14.6 73 +22 +29 комфорт 1019.6 1011.0
ЮВ 2 30 км 3/0
[Ac trans Ci fib]
+20.9 +14.8 68 +25 +35 комфорт 1019.5 1011.0
Ю 1 30 км 3/1 600 м
[Cu hum Ci fib]
+22.6 +15.4 64 +27 +41 душно 1019.6 1011.1
ЮВ 3 35 км 4/3 600 м
[Cu hum Ci fib]
+23.8 +14.2 55 +26 +35 жарко 1019.5 1011.1
Ю 2 30 км 5/3 1000 м
[Cu hum Cs]
+24.5 +14.6 54 +27 +38 жарко 1019.3 1010.9
ЮВ 2 45 км 8/5 1000 м
[Cu med, cong Cs]
+24.5 +14.0 52 +27 +34 жарко 1019.2 1010.8
ЮВ 2 40 км 9/6 1500 м
[Cb calv Cs]
+24.7 +13.9 51 +27 +31 жарко 1018.6 1010.2
В 1 40 км 9/5 1500 м
[Cb calv Cs]
+25.1 +14.2 51 +28 +32 жарко 1018.1 1009.7
ЮВ 2 40 км 9/6 1500 м
[Cb calv Cs]
+25.3 +12.8 46 +27 +29 жарко 1017.7 1009.3
В 2 45 км 9/6 1500 м
[Cb calv Cs]
+24.5 +12.8 48 +26 +28 жарко 1017.6 1009.2
ЮВ 1 45 км в посл. час ливневой дождь 9/6 1500 м
[Cb cap Cs]
+23.0 +13.2 54 +26 +27 жарко 1018.2 1009.7
В 4 50 км гроза без осадков {ливн. дождь} 9/8 1500 м
[Cb cap Cs]
+21.5 +13.4 60 +24 +24 комфорт 1018.9 1010.4 +17.5 +25.7 0.0
В 2 50 км в посл. час гроза {ливн. дождь} 10/8 1500 м
[Cb cap Ac As]
+20.6 +12.6 60 +23 +23 комфорт 1018.9 1010.4
ЮВ 3 27 км слаб. ливневой дождь 10/10 2000 м
[Cb cap]
+19.0 +13.8 72 +20 +20 1019.3 1010.7
В 3 18 км слаб. ливневой дождь н/о +17.9 +14.8 82 +18 +18 1019.5 1010.9
В 2 50 км в посл. час дождь н/о +17.6 +13.7 78 +18 +18 1019.6 1011.0
В 2 14 км н/о +17.5 +13.2 76 +18 +18 1020.1 1011.5
В 2 45 км н/о +16.6 +12.9 79 +17 +17 1020.0 1011.3 0.2
СВ 2 50 км н/о +15.8 +13.1 84 +16 +16 1019.6 1010.9
В 1 45 км н/о +15.1 +13.3 89 +16 +16 1019.9 1011.2
В 2 35 км н/о +15.0 +13.4 90 +15 +15 1020.0 1011.3
В 2 35 км н/о +15.2 +13.2 88 +15 +15 1020.4 1011.7
В 2 35 км 3/0
[Ac trans Ci fib]
+16.9 +14.0 83 +17 +19 1020.7 1012.0
ЮВ 3 35 км 4/0
[Ac trans Ci fib]
+19.1 +14.6 75 +21 +24 комфорт 1020.9 1012.3 +14.8 +21.5 0.2 0.2
ЮВ 3 40 км 4/0
[Ac trans Ci fib]
+20.7 +14.1 66 +24 +30 комфорт 1020.8 1012.3
В 2 30 км 4/0
[Ac trans Ci fib]
+22.2 +14.1 60 +25 +35 комфорт 1020.9 1012.4
ЮВ 2 40 км 4/0
[Ci fib]
+23.6 +12.9 51 +26 +39 жарко 1020.8 1012.3
ЮВ 3 35 км 4/1 1000 м
[Cu hum Ci fib]
+24.9 +12.8 47 +27 +38 жарко 1020.6 1012.2
В 4 30 км 6/1 1000 м
[Cu med, cong Cs]
+25.7 +12.2 43 +27 +36 жарко 1020.6 1012.2
ЮВ 3 35 км 6/1 1000 м
[Cu med, cong Cs]
+26.9 +11.4 38 +28 +38 жарко 1020.4 1012.0
В 3 40 км 6/4 1000 м
[Cu med, cong Cs]
+26.3 +10.0 36 +27 +33 жарко 1020.1 1011.7
ЮВ 3 35 км 5/4 1500 м
[Cu med, cong Ci fib]
+27.2 +10.8 36 +28 +33 жарко 1019.7 1011.3
В 3 40 км 6/5 1500 м
[Cu med, cong Ci fib]
+26.9 +12.2 40 +28 +31 жарко 1019.3 1010.9
СВ 3 40 км 4/4 1500 м
[Cb calv]
+26.5 +12.2 41 +28 +30 жарко 1019.1 1010.7
СВ 2 30 км 4/4 1500 м
[Cb calv]
+25.7 +11.8 42 +27 +28 жарко 1019.6 1011.2
В 5 {12} 50 км 6/5 2000 м
[Cb cap Ci sp]
+21.8 +10.6 49 +24 +24 комфорт 1020.6 1012.1 +19.1 +27.3
ЮВ 6 50 км 8/4 2000 м
[Cb calv Ci sp]
+21.2 +9.4 47 +23 +23 комфорт 1021.0 1012.5
В 3 50 км слаб. ливневой дождь 9/9 1500 м
[Cb cap]
+19.6 +11.1 58 +21 +21 комфорт 1021.3 1012.7
Ю 2 40 км слаб. ливневой дождь н/о +18.4 +12.4 68 +19 +19 1021.6 1013.0
Ю 2 50 км в посл. час дождь н/о +17.6 +12.9 74 +18 +18 1021.3 1012.7
ЮВ 2 50 км н/о +18.6 +12.8 69 +20 +20 1021.5 1012.9
В 1 50 км н/о +18.0 +12.7 71 +19 +19 1021.0 1012.4 0.2
В 2 50 км н/о +17.5 +12.2 71 +18 +18 1020.5 1011.9
В 2 50 км н/о +16.8 +11.5 71 +17 +17 1020.5 1011.8
В 3 50 км н/о +16.6 +11.5 72 +16 +16 1020.3 1011.6
В 3 35 км н/о +17.1 +11.6 70 +17 +17 1020.2 1011.6
В 3 35 км 3/0
[Ci fib]
+18.5 +11.1 62 +19 +21 1020.6 1012.0
ЮВ 3 35 км 3/0
[Ci fib]
+19.7 +10.9 57 +21 +25 комфорт 1020.7 1012.1 +16.4 +22.0 0.2 0.2
ЮВ 3 35 км 3/0
[Ac trans Ci fib]
+21.5 +11.5 53 +24 +30 комфорт 1020.5 1012.0
В 3 35 км 1/0
[Ci fib]
+22.7 +12.3 52 +25 +35 комфорт 1020.2 1011.7
ЮВ 3 30 км 1/0
[Ci fib]
+24.5 +13.4 50 +27 +38 жарко 1020.0 1011.6
В 4 30 км 1/0
[Ci fib]
+25.7 +13.2 46 +28 +38 жарко 1019.7 1011.3
ЮВ 4 30 км 1/1 1000 м
[Cu hum]
+26.8 +12.4 41 +28 +38 жарко 1019.5 1011.1
Ю 4 {9} 40 км 3/3 1000 м
[Cu med, cong]
+28.0 +11.1 35 +29 +36 жарко 1018.9 1010.6
ЮВ 4 {9} 40 км 3/3 1500 м
[Cu med, cong]
+27.9 +7.2 27 +27 +33 жарко 1018.4 1010.1
Ю 4-9 {11} 40 км 3/3 1500 м
[Cu med, cong]
+27.8 +5.4 24 +27 +31 жарко 1017.8 1009.5
Ю 5-11 {11} 40 км 3/1 1500 м
[Cu med, cong Ci fib]
+28.2 +3.8 21 +27 +30 жарко 1017.3 1009.0
Ю 4 40 км 3/1 1000 м
[Cu hum Ci fib]
+27.9 +6.0 25 +27 +29 жарко 1016.7 1008.4
ЮВ 4 40 км 3/1 1500 м
[Cu hum Ci fib]
+27.2 +5.5 25 +26 +27 жарко 1016.8 1008.5
В 2 {11} 50 км 3/0
[Ci fib]
+25.3 +4.9 27 +25 +25 комфорт 1017.1 1008.7 +19.7 +28.4
В 2 45 км 3/0
[Ci fib]
+23.2 +4.2 29 +23 +23 комфорт 1017.1 1008.7
В 2 50 км 3/0
[Ci fib]
+21.3 +4.8 34 +22 +22 комфорт 1017.4 1008.9
В 1 50 км н/о +19.7 +5.0 38 +21 +21 комфорт 1017.2 1008.7
В 3 50 км н/о +19.3 +4.6 38 +20 +20 1017.3 1008.7
В 3 50 км н/о +18.7 +5.5 42 +19 +19 1017.3 1008.7
В 2 50 км н/о +17.5 +5.7 46 +18 +18 1017.3 1008.7
В 2 50 км н/о +17.0 +5.6 47 +17 +17 1016.9 1008.3
В 2 50 км н/о +16.0 +6.4 53 +16 +16 1016.9 1008.2
В 2 50 км н/о +15.0 +6.8 58 +15 +15 1016.8 1008.1
В 3 40 км н/о +16.6 +7.0 53 +16 +16 1016.6 1008.0
В 4 35 км ясно +18.3 +7.4 49 +18 +20 1016.6 1008.0
ЮВ 3 35 км 1/0
[Ci fib]
+20.8 +8.4 45 +23 +27 комфорт 1016.3 1007.8 +15.0 +25.3
В 4 30 км 1/0
[Ci fib]
+22.9 +7.4 37 +24 +29 комфорт 1016.0 1007.6
ЮВ 5 35 км 1/0
[Ci fib]
+24.8 +7.4 33 +25 +31 комфорт 1015.9 1007.5
ЮВ 5 35 км 1/0
[Ci fib]
+25.4 +8.0 33 +26 +33 жарко 1015.9 1007.5
ЮВ 4 35 км 1/0
[Ci fib]
+26.6 +6.6 28 +26 +37 жарко 1015.4 1007.1
ЮВ 4 27 км 3/1 1500 м
[Cu hum Ci fib]
+27.5 +4.5 23 +26 +36 жарко 1015.1 1006.8
ЮВ 3 {8} 35 км 4/3 1500 м
[Cu hum Ci fib]
+27.9 +6.0 25 +27 +36 жарко 1014.5 1006.2
ЮВ 3 35 км 4/3 1500 м
[Cu med, cong Cs]
+28.6 +6.0 24 +27 +35 жарко 1013.8 1005.5
В 4 {9} 30 км 5/4 1500 м
[Cu med, cong Cs]
+28.5 +6.6 25 +28 +31 жарко 1013.4 1005.1
Ю 3-9 {9} 35 км 6/4 2000 м
[Cu med, cong Ac und Cs]
+28.6 +4.8 22 +27 +30 жарко 1013.5 1005.2
Местоположение метеостанции Торунь (Польша): широта 53.05 долгота 18.58 высота над уровнем моря 72 м.
В архиве по умолчанию представлена погода в Торуни за последнюю неделю. Архивные данные за месяц целиком и за предыдущие месяцы, начиная с января 2011 года, Вы можете получить, выбрав интересующий диапазон дат из раскрывающегося списка и нажав кнопку "Найти!".
*Определитесь, кто Вы:
Внимание! Время в таблицах - всемирное. Для получения местного времени необходимо прибавить поправку, которая равна 1 ч.
Некоторые строки с данными для отдельных станций могут быть выделены курсивом. Это означает, что фактические данные отсутствуют по различным причинам, а приведенные значения являются расчетными модельными данными для данного пункта наблюдений.
Смотрите также архив погоды в соседних городах и на ближайших метеорологических станциях:
Партнеры нашего сайта:      
Пояснения к столбцам:
  • Ветер - указаны скорость ветра в м/с - средняя за 10 мин, порывы в срок и между сроками (в фигурных скобках) и направление, откуда дует ветер: С - северный,
  • СВ - северо-восточный, В - восточный, ЮВ - юго-восточный, Ю - южный, ЮЗ - юго-западный, З - западный, СЗ - северо-западный.
  • Видимость - горизонтальная дальность видимости в метрах или километрах. При видимости от 1 до 10 км при отсутствии осадков обычно наблюдается дымка, при ухудшении видимости до 1 км и менее - туман. В сухую погоду видимость может ухудшаться дымом, пылью или мглою.
  • Явления - указаны атмосферные явления, наблюдавшиеся в срок или в последний час перед сроком; фигурными скобками обозначены явления, наблюдавшиеся между сроками (за 1-3 часа до срока); квадратными скобками обозначены град или гололедные отложения с указанием их диаметра в мм.
  • Облачность - указаны через наклонную черту общая и нижняя облачность в баллах и высота нижней границы облаков в метрах; квадратными скобками обозначены формы облаков: Ci - перистые, Cs - перисто-слоистые, Cc - перисто-кучевые, Ac - высококучевые, As - высокослоистые, Sc - слоисто-кучевые, Ns - слоисто-дождевые, Cu - кучевые, Cb - кучево-дождевые. Подробнее классификацию облаков см. в Атласе облаков (PDF).
  • T - Температура воздуха - температура, измеренная на высоте 2 м над землей.
  • Td - Температура точки росы - температура, при понижении до которой содержащийся в воздухе водяной пар достигнет насыщения.
  • f - Относительная влажность воздуха - влажноcть воздуха, измеренная на высоте 2 м над землей.
  • Te - Эффективная температура - температура, которую ощущает одетый по сезону человек в тени. Характеристика душности погоды. При расчете учитывается влияние влажности воздуха и скорости ветра на теплоощущения человека.
  • Tes - Эффективная температура на солнце - температура, которую ощущает человек, с поправкой на солнечный нагрев. Характеристика знойности погоды. Зависит от высоты солнца над горизонтом, облачности и скорости ветра. Ночью, в пасмурную погоду, а также при ветре 12 м/с и более поправка равна нулю.
  • P - Атмосферное давление - приведенное к уровню моря атмосферное давление.
  • Po - Атмосферное давление - измеренное на уровне метеостанции атмосферное давление.
  • Tmin - Минимальная температура - минимум температуры воздуха на высоте 2 м над землей.
  • Tmax - Максимальная температура - максимум температуры воздуха на высоте 2 м над землей.
  • R - Количество осадков - Количество выпавших осадков за период времени, мм. При наведении курсора мыши на число - период времени, за который выпало указанное количество осадков.
  • R24 - Количество осадков - Количество выпавших осадков за 24 часа, мм.
  • S - Снежный покров - Высота снежного покрова, см. При наведении курсора мыши на число - состояние снежного покрова и степень покрытия местности в баллах.